Regional Weather Roundup
Issued by NWS Upton, NY

Current Version | Previous Version | Graphics & Text | Print | Product List | Glossary Off
Versions: 1 2 3 4 5 6 7 8 9 10 11 12 13 14 15 16 17 18 19 20 21 22 23 24 25 26 27 28 29 30 31 32 33 34 35 36 37 38 39 40 41 42 43 44 45 46 47 48 49 50

000
ASUS41 KOKX 200605
RWROKX

REGIONAL WEATHER ROUNDUP
NATIONAL WEATHER SERVICE NEW YORK NY
200 AM EDT MON OCT 20 2014

NOTE: "FAIR" INDICATES FEW OR NO CLOUDS BELOW 12,000 FEET WITH NO
SIGNIFICANT WEATHER AND/OR OBSTRUCTIONS TO VISIBILITY.

NYZ071-072-176-178-NJZ106-104-200700-
NEW YORK CITY METRO AREA


CITY           SKY/WX    TMP DP  RH WIND       PRES   REMARKS
CENTRAL PARK   MOCLDY    43  27  53 NW5       30.09S
LAGUARDIA APRT MOCLDY    44  29  55 NW8       30.06S
KENNEDY INTL   MOCLDY    43  26  51 NW6       30.08R
NEWARK/LIBERTY MOCLDY    42  28  57 W6        30.08S
BRNX BOT. GARD   N/A    N/A N/A N/A N1        30.08R
TETERBORO      MOCLDY    41  26  55 CALM      30.07S
$$

NYZ177-179-078>081-200700-
LONG ISLAND NEW YORK

CITY           SKY/WX    TMP DP  RH WIND       PRES   REMARKS
FARMINGDALE    PTCLDY    42  29  59 CALM      30.07R
ISLIP          CLEAR     39  29  67 CALM      30.04R
SHIRLEY        NOT AVBL
WESTHAMPTON    CLEAR     41  27  57 NW6       30.07R
MONTAUK POINT    N/A     45  28  51 NW13      30.04R
$$

NYZ052-065-067-200700-
HUDSON VALLEY

CITY           SKY/WX    TMP DP  RH WIND       PRES   REMARKS
WHITE PLAINS   PTCLDY    40  27  59 NW7       30.04S
NEWBURGH       NOT AVBL
MONTGOMERY     MOCLDY    33  27  78 SW5       30.06R WCI  29
POUGHKEEPSIE   PTCLDY    33  29  85 CALM      30.05F
ALBANY         MOCLDY    35  29  78 CALM      30.05R
$$

NJZ001-105-106-008-010-013-015-019>022-104-200700-
NEW JERSEY

CITY           SKY/WX    TMP DP  RH WIND       PRES   REMARKS
NEWARK/LIBERTY MOCLDY    42  28  57 W6        30.08S
TETERBORO      MOCLDY    41  26  55 CALM      30.07S
CALDWELL       MOCLDY    37  29  72 CALM      30.08S
MORRISTOWN     CLOUDY    37  34  87 CALM      30.08S
SOMERVILLE     CLOUDY    34  31  88 CALM      30.08R
SUSSEX         CLOUDY    35  30  82 CALM      30.06F
ANDOVER          N/A     36  29  75 CALM      30.07S
TRENTON        MOCLDY    37  29  72 CALM      30.10R
MILLVILLE      PTCLDY    35  32  88 CALM      30.11R
ATLANTIC CITY  MOCLDY    36  32  85 CALM      30.11R
WRIGHTSTOWN    MOCLDY    36  31  81 CALM      30.09R
TOMS RIVER     PTCLDY    30  28  93 CALM      30.11R
BELMAR         PTCLDY    39  25  56 W6        30.09R WCI  35
$$

PAZ047>061-062-071-200700-
EASTERN PENNSYLVANIA

CITY           SKY/WX    TMP DP  RH WIND       PRES   REMARKS
PHILADELPHIA   PTCLDY    45  31  58 CALM      30.12R
ALLENTOWN      MOCLDY    40  29  64 CALM      30.09R
SCRANTON       MOCLDY    35  29  78 CALM      30.05F
$$

CTZ002-004>006-009-010-012-RIZ004-006-007-MAZ004-011-015-200700-
SOUTHERN NEW ENGLAND
 IN CT

CITY           SKY/WX    TMP DP  RH WIND       PRES   REMARKS
BRADLEY INTL   PTCLDY    38  27  64 W5        30.02S WCI  34
HARTFORD       CLEAR     39  27  62 W5        30.04S
DANBURY        CLEAR     34  28  79 SW3       30.05S
WTRBRY/OXFORD  PTCLDY    34  23  64 CALM      30.04R
BRIDGEPORT     PTCLDY    42  30  62 W5        30.06R
MERIDEN        PTCLDY    32  28  85 S3        30.05R
NEW HAVEN      PTCLDY    44  29  55 VRB5      30.05R
CHESTER        FAIR      39  27  60 NW8       30.03R WCI  34
GROTON         CLEAR     37  28  70 NW7       30.03S WCI  32
WILLIMANTIC    CLEAR     36  30  79 CALM      30.03R

 IN RI

CITY           SKY/WX    TMP DP  RH WIND       PRES   REMARKS
PROVIDENCE     CLEAR     38  27  64 W5        30.02R WCI  34
BLOCK ISLAND   CLEAR     43  27  52 NW10G17   30.01R
WESTERLY       CLEAR     38  28  67 NW5       30.03S WCI  34

 IN MA

CITY           SKY/WX    TMP DP  RH WIND       PRES   REMARKS
BOSTON         PTCLDY    41  24  51 W13       29.99R
WORCESTER      CLEAR     34  24  67 W7        29.98R WCI  28
WESTFIELD      CLEAR     34  30  85 CALM      30.02S
PROVINCETOWN   MOCLDY    45  27  49 NW18G25   29.97R
NANTUCKET      CLOUDY    47  31  53 NW16G22   29.97R
$$

ANZ330-335-338-340-345-350-353-355-200700-
COASTAL MARINE OBSERVATIONS


STATION/POSITION TIME  SKY/WX   TEMP    WIND        PRES    VSBY  WAVE
                                AIR SEA DIR/SP/G                  HT/PER
                 (UTC)          (F)     (DEG/KT/KT) (MB)    (MI)  (FT/S)
NY HARB ENTRANCE NOT AVBL
4S FIRE IS       0600               64                N/A           2/12
20S FIRE ISLAND  0600            48 64  330/ 14/ 17 1018.1          4/ 5
23SW MTP         0600                                 N/A           5/ 5
HUDSON CANYON    0600            51 66  320/ 16/ 21 1017.5          6/ 6
EXECUTION ROCKS  0600            45 64  320/  6/ 12   N/A
WESTERN LI SOUND 0600            46     320/ 10/ 12   N/A           0
CENTRAL LI SOUND 0500            45 64  310/ 16/ 23   N/A           2/ 3
EASTERN LI SOUND 0500            46 64  310/ 16/ 19   N/A
ROBBINS REEF     0600            44     310/ 11/ 13 1017.3
$$


>>>>>>>>>>>>>>>>>>>>>>>>>>>> KEY <<<<<<<<<<<<<<<<<<<<<<<<<<<
>                                                          <
>     SKY/WX - SKY CONDITION/PRESENT WEATHER               <
>     TMP    - TEMPERATURE IN FAHRENHEIT                   <
>     DP     - DEWPOINT IN FAHRENHEIT                      <
>     RH     - RELATIVE HUMIDITY IN PERCENT                <
>     WIND   - DIRECTION AND SPEED IN MPH                  <
>     PRES   - MEAN SEA LEVEL PRESSURE IN INCHES OF HG     <
>     WCI    - WIND CHILL INDEX                            <
>     VSB    - VISIBILITY IN MILES                         <
>     HX     - HEAT INDEX                                  <
>     TC     - TEMPERATURE IN CELSIUS                      <
>     VRB    - VARIABLE WIND DIRECTION                     <
>                                                          <
>>>>>>>>>>>>>>>>>>>>>>>>>>>> KEY <<<<<<<<<<<<<<<<<<<<<<<<<<<





USA.gov is the U.S. government's official web portal to all federal, state and local government web resources and services.